Weather in Sosnytsia

Ukraine / Chernihiv Region     51°31′34″N   32°30′52″E
temp.,
°C
wind,
m/s
gust,
m/s
humid.,
%
clouds,
%
prec.,
mm/h
press.,
hPa
HPBL,
m
13 june, sun
sun1300:00+14s338763 0.0 100931
03:00+14s36945 0.1 1007103
06:00+14s359649 0.9 1006127
09:00+19ssw478595 2.3 1005326
12:00+21ssw6873100 1.8 10061171
15:00+22ssw6876100 3.2 10061163
18:00+19wsw4688100 2.8 1006599
21:00+13wnw359373 3.8 1008107
14 june, mon
mon1400:00+11wnw22945 0.0 100930
03:00+11n1294100 0.0 101012
06:00+12ne229317 0.0 101182
09:00+17ene348112 0.0 1012427
12:00+22se237029 0.0 10131099
15:00+24ese23649 0.6 10131279
18:00+23ese23715 1.1 1014659
21:00+18ese118423 1.7 101411
15 june, tue
tue1500:00+17ne22895 0.0 101511
03:00+15ne22915 0.0 101511
06:00+16ne11904 0.0 101518
09:00+21n23795 0.0 1015399
12:00+24nne23688 0.2 10141190
15:00+25nne125956 1.2 10121224
18:00+24nnw237594 1.3 101171
21:00+19n489097 2.4 1012151
16 june, wed
wed1600:00+17n369499 0.0 1011100
03:00+16n499698 0.1 1012191
06:00+16n4109586 0.6 1012267
09:00+19nne587977 0.6 1013514
12:00+23n56659 0.0 10131127
15:00+23n676310 0.0 10131342
18:00+23nne59720 0.1 1014861
21:00+18n511840 0.1 1015366
17 june, thu
thu1700:00+17nne514870 0.0 1016421
03:00+16ne513870 0.0 1016402
06:00+15ne614860 0.0 1018427
09:00+18ne712740 0.0 1019657
12:00+21ne810650 0.0 10191093
15:00+22ene79655 0.0 10191384
18:00+21ne710720 0.0 10201040
21:00+17ne412810 0.0 1021325